Regional Weather Roundup
Issued by NWS

Home | Current Version | Previous Version | Graphics & Text | Print | Product List | Glossary On
Versions: 1 2 3 4 5 6 7 8 9 10 11 12 13 14 15 16 17 18 19 20 21 22 23 24 25 26 27 28 29 30 31 32 33 34 35 36 37 38 39 40 41 42 43 44 45 46 47 48 49 50
000
ASUS43 KLMK 210710
RWRKY
KENTUCKY REGIONAL WEATHER ROUNDUP
NATIONAL WEATHER SERVICE LOUISVILLE KY
200 AM EST TUE FEB 21 2017

NOTE "FAIR" INDICATES FEW OR NO CLOUDS BELOW 12,000 FEET
WITH NO SIGNIFICANT WEATHER AND/OR OBSTRUCTIONS TO VISIBILITY.

KYZ001>023-026-027-061>063-070>075-210800-
WESTERN AND SOUTH CENTRAL KENTUCKY

CITY           SKY/WX    TMP DP  RH WIND       PRES   REMARKS
PADUCAH        MOCLDY    62  47  57 SE7       29.93F
HENDERSON      NOT AVBL
OWENSBORO      CLOUDY    59  46  62 SE6       29.97S
HOPKINSVILLE   PTCLDY    60  46  59 SE7       29.97F
BOWLING GREEN  CLOUDY    62  44  51 S7        30.01F
GLASGOW        CLOUDY    61  45  56 SE5       30.02F
$$

KYZ024-025-028>034-038-045-046-053-210800-
NORTH CENTRAL KENTUCKY

CITY           SKY/WX    TMP DP  RH WIND       PRES   REMARKS
LOUISVILLE/SDF CLOUDY    58  41  53 SE5       30.00F
LOUISVILLE/LOU CLOUDY    53  43  68 CALM      30.01F
FORT KNOX      MOCLDY    57  43  58 SE5       29.98F
$$

KYZ035>037-039>044-047>052-055>060-089>105-210800-
NORTHEAST KENTUCKY

CITY           SKY/WX    TMP DP  RH WIND       PRES   REMARKS
LEXINGTON      PTCLDY    58  40  51 SE9       30.05S
COVINGTON      CLOUDY    53  39  59 SE7       30.03F
FRANKFORT      CLOUDY    51  41  68 S5        30.03S
$$

KYZ054-064>069-076>088-106>120-210800-
SOUTHEAST KENTUCKY

CITY           SKY/WX    TMP DP  RH WIND       PRES   REMARKS
JACKSON        PTCLDY    56  35  45 S5        30.08S
LONDON         PTCLDY    48  40  73 CALM      30.09S
SOMERSET       PTCLDY    54  41  62 CALM      30.09S
MIDDLESBORO    CLOUDY    44  42  93 CALM      30.12S
MONTICELLO     CLOUDY    51  44  77 W10       30.09S
$$





USA.gov is the U.S. government's official web portal to all federal, state and local government web resources and services.